Overview Statistics Trail Chart Weather Telemetry Raw packets
 

This is the latest recevied weather packets stored in our database for station/object K5OLV. If no packets are shown the sender has not sent any weather packets the latest 10 day(s).

<< 98 99 100 101 102 103 104 >>
Time Temp. Humidity Pressure Rain* Wind** Luminosity Snow
1787879306 22.22° C 93% 1013.1 hPa 0 mm - 0 W/m² -
1787879003 22.22° C 92% 1013.2 hPa 0 mm - 0 W/m² -
1787878702 22.78° C 92% 1013 hPa 0 mm - 0 W/m² -
1787878396 22.78° C 92% 1013.1 hPa 0 mm - 0 W/m² -
1787878093 22.78° C 92% 1013 hPa 0 mm - 0 W/m² -
1787877788 22.78° C 92% 1013.1 hPa 0 mm - 0 W/m² -
1787877483 23.33° C 91% 1012.9 hPa 0 mm - 0 W/m² -
1787877179 23.33° C 90% 1013 hPa 0 mm - 0 W/m² -
1787876878 23.33° C 90% 1013 hPa 0 mm - 0 W/m² -
1787876574 23.89° C 90% 1013.1 hPa 0 mm - 0 W/m² -
1787876274 23.89° C 89% 1013 hPa 0 mm - 0 W/m² -
1787875972 24.44° C 87% 1012.8 hPa 0 mm - 2 W/m² -
1787875668 25.56° C 85% 1012.7 hPa 0 mm - 4 W/m² -
1787875366 26.11° C 82% 1012.8 hPa 0 mm - 9 W/m² -
1787875065 25.56° C 78% 1012.7 hPa 0 mm - 11 W/m² -
1787874761 26.11° C 79% 1013 hPa 0 mm - 15 W/m² -
1787874459 26.11° C 78% 1012.9 hPa 0 mm - 19 W/m² -
1787874154 26.11° C 79% 1012.9 hPa 0 mm - 22 W/m² -
1787873849 26.11° C 80% 1012.6 hPa 0 mm - 26 W/m² -
1787873548 26.11° C 81% 1012.8 hPa 0 mm - 33 W/m² -
1787873244 26.11° C 80% 1012.6 hPa 0 mm - 38 W/m² -
1787872942 26.67° C 80% 1013 hPa 0 mm - 41 W/m² -
1787872638 26.67° C 79% 1012.8 hPa 0 mm - 44 W/m² -
1787872333 26.67° C 80% 1013 hPa 0 mm - 49 W/m² -
1787872028 26.67° C 79% 1012.8 hPa 0 mm - 55 W/m² -

* Rain latest hour (hover to see other rain measurements)
** Current wind speed in m/s (hover to see current wind gust speed)